DLH11Y LEBL-EDDF

Flight info

Callsign DLH11Y
Flight time 1h 47m
Altitude 36000
Route DALIN DCT PIVUS DCT DIBER DCT ADITA DCT MAXIR DCT LUSOL DCT BODRU DCT OKTET DCT IRMAR DCT KINES DCT VANAS DCT ESOKO DCT GODRA DCT LADOL T163 EMPAX EMPAX5C
Aircraft A321/M-SDE2E3FGIJ1LORWXYZ/HB1

Departure

Time 2026-05-01 10:50
Airport Josep Tarradellas Barcelona-El Prat Airport (LEBL)

Arrival

Time 2026-05-01 12:38
Airport Frankfurt Main Airport (EDDF)
Time Latitude Longitude Altitude Speed Heading
2026-05-01 09:55 41.29009 2.08004 19 ft 0 kts 336°
2026-05-01 10:40 41.28989 2.08016 19 ft 4 kts 335°
2026-05-01 10:40 41.28966 2.08034 22 ft 4 kts 315°
2026-05-01 10:41 41.28952 2.08062 20 ft 4 kts 275°
2026-05-01 10:41 41.28953 2.08080 22 ft 0 kts 245°
2026-05-01 10:44 41.28953 2.08079 22 ft 1 kts 245°
2026-05-01 10:45 41.28937 2.08033 21 ft 10 kts 245°
2026-05-01 10:45 41.28904 2.07935 19 ft 13 kts 245°
2026-05-01 10:45 41.28846 2.07855 18 ft 13 kts 177°
2026-05-01 10:45 41.28757 2.07902 20 ft 15 kts 155°
2026-05-01 10:46 41.28669 2.07956 15 ft 14 kts 155°
2026-05-01 10:46 41.28602 2.07963 17 ft 9 kts 223°
2026-05-01 10:46 41.28573 2.07885 16 ft 11 kts 246°
2026-05-01 10:46 41.28540 2.07787 16 ft 13 kts 244°
2026-05-01 10:47 41.28500 2.07673 16 ft 14 kts 246°
2026-05-01 10:47 41.28456 2.07544 16 ft 16 kts 245°
2026-05-01 10:47 41.28409 2.07406 17 ft 14 kts 246°
2026-05-01 10:47 41.28351 2.07337 18 ft 10 kts 197°
2026-05-01 10:48 41.28281 2.07364 19 ft 11 kts 157°
2026-05-01 10:48 41.28225 2.07401 17 ft 3 kts 128°
2026-05-01 10:48 41.28229 2.07426 18 ft 3 kts 69°
2026-05-01 10:48 41.28229 2.07427 18 ft 0 kts 68°
2026-05-01 10:50 41.28232 2.07436 18 ft 5 kts 68°
2026-05-01 10:50 41.28348 2.07776 21 ft 79 kts 65°
2026-05-01 10:50 41.28670 2.08725 51 ft 140 kts 65°
2026-05-01 10:50 41.29024 2.09906 797 ft 137 kts 76°
2026-05-01 10:51 41.29052 2.11181 1526 ft 141 kts 90°
2026-05-01 10:51 41.28958 2.12565 1884 ft 161 kts 91°
2026-05-01 10:51 41.28836 2.14151 2210 ft 182 kts 92°
2026-05-01 10:51 41.28702 2.15867 2744 ft 189 kts 94°
2026-05-01 10:52 41.28566 2.17588 3358 ft 192 kts 95°
2026-05-01 10:52 41.28423 2.19395 3953 ft 195 kts 95°
2026-05-01 10:52 41.28284 2.21179 4597 ft 199 kts 95°
2026-05-01 10:52 41.28142 2.23012 5283 ft 201 kts 96°
2026-05-01 10:53 41.27999 2.24902 5850 ft 209 kts 96°
2026-05-01 10:53 41.27854 2.26845 6447 ft 214 kts 96°
2026-05-01 10:53 41.27706 2.28840 7027 ft 218 kts 96°
2026-05-01 10:53 41.27555 2.30853 7662 ft 219 kts 97°
2026-05-01 10:54 41.27369 2.32900 8094 ft 232 kts 98°
2026-05-01 10:54 41.27134 2.35136 8334 ft 256 kts 99°
2026-05-01 10:54 41.26869 2.37565 8761 ft 272 kts 99°
2026-05-01 10:54 41.26594 2.40074 9473 ft 276 kts 99°
2026-05-01 10:55 41.26317 2.42616 10244 ft 279 kts 98°
2026-05-01 10:55 41.26033 2.45243 10580 ft 298 kts 98°
2026-05-01 10:55 41.25728 2.48080 10768 ft 320 kts 99°
2026-05-01 10:55 41.25408 2.51049 11256 ft 328 kts 99°
2026-05-01 10:56 41.25179 2.54090 11850 ft 334 kts 89°
2026-05-01 10:56 41.25568 2.57148 12437 ft 340 kts 71°
2026-05-01 10:56 41.26654 2.59958 13048 ft 345 kts 55°
2026-05-01 10:56 41.28055 2.62570 13695 ft 349 kts 54°
2026-05-01 10:57 41.29489 2.65194 14290 ft 353 kts 50°
2026-05-01 10:57 41.31231 2.67510 14832 ft 357 kts 38°
2026-05-01 10:57 41.33320 2.69310 15405 ft 360 kts 26°
2026-05-01 10:57 41.35655 2.70553 15962 ft 364 kts 19°
2026-05-01 10:58 41.38043 2.71697 16543 ft 367 kts 20°
2026-05-01 10:58 41.40452 2.72863 17133 ft 370 kts 19°
2026-05-01 10:58 41.42880 2.74044 17694 ft 373 kts 20°
2026-05-01 10:58 41.45324 2.75238 18255 ft 376 kts 20°
2026-05-01 10:59 41.47766 2.76533 18750 ft 380 kts 26°
2026-05-01 10:59 41.50014 2.78402 19227 ft 383 kts 37°
2026-05-01 10:59 41.51946 2.80864 19689 ft 387 kts 49°
2026-05-01 10:59 41.53482 2.83828 20157 ft 391 kts 60°
2026-05-01 11:00 41.54783 2.87037 20604 ft 395 kts 60°
2026-05-01 11:00 41.56096 2.90278 21028 ft 399 kts 60°
2026-05-01 11:00 41.57422 2.93548 21473 ft 402 kts 60°
2026-05-01 11:00 41.58762 2.96844 21878 ft 406 kts 59°
2026-05-01 11:01 41.60111 3.00163 22319 ft 408 kts 60°
2026-05-01 11:01 41.61470 3.03512 22720 ft 412 kts 59°
2026-05-01 11:01 41.62841 3.06889 23204 ft 414 kts 60°
2026-05-01 11:01 41.64214 3.10278 23621 ft 416 kts 59°
2026-05-01 11:02 41.65591 3.13687 24040 ft 418 kts 60°
2026-05-01 11:02 41.66975 3.17122 24368 ft 421 kts 60°
2026-05-01 11:02 41.68354 3.20595 24749 ft 423 kts 61°
2026-05-01 11:02 41.69646 3.24148 25067 ft 427 kts 64°
2026-05-01 11:03 41.70866 3.27785 25437 ft 429 kts 65°
2026-05-01 11:03 41.72047 3.31467 25768 ft 432 kts 66°
2026-05-01 11:03 41.73226 3.35181 26132 ft 435 kts 66°
2026-05-01 11:03 41.74406 3.38861 26456 ft 437 kts 65°
2026-05-01 11:04 41.75644 3.42653 26809 ft 440 kts 65°
2026-05-01 11:04 41.76889 3.46406 27142 ft 442 kts 65°
2026-05-01 11:04 41.78131 3.50124 27474 ft 444 kts 65°
2026-05-01 11:04 41.79396 3.53905 27808 ft 447 kts 65°
2026-05-01 11:05 41.80670 3.57727 28141 ft 449 kts 65°
2026-05-01 11:05 41.81944 3.61568 28465 ft 452 kts 65°
2026-05-01 11:05 41.83222 3.65427 28786 ft 454 kts 65°
2026-05-01 11:05 41.84505 3.69307 29108 ft 457 kts 65°
2026-05-01 11:06 41.85796 3.73218 29418 ft 459 kts 65°
2026-05-01 11:06 41.87088 3.77147 29723 ft 462 kts 66°
2026-05-01 11:06 41.88386 3.81104 30035 ft 465 kts 65°
2026-05-01 11:07 41.90999 3.89077 30618 ft 469 kts 65°
2026-05-01 11:07 41.92312 3.93094 30890 ft 471 kts 65°
2026-05-01 11:07 41.93628 3.97126 31124 ft 473 kts 65°
2026-05-01 11:07 41.94948 4.01180 31361 ft 475 kts 65°
2026-05-01 11:08 41.96271 4.05250 31599 ft 476 kts 65°
2026-05-01 11:08 41.97598 4.09340 31827 ft 478 kts 65°
2026-05-01 11:08 42.00251 4.17543 32391 ft 478 kts 65°
2026-05-01 11:09 42.01573 4.21636 32726 ft 477 kts 65°
2026-05-01 11:09 42.02892 4.25722 33040 ft 476 kts 65°
2026-05-01 11:09 42.04212 4.29799 33363 ft 475 kts 65°
2026-05-01 11:10 42.06932 4.37885 33966 ft 473 kts 59°
2026-05-01 11:10 42.08701 4.41589 34264 ft 470 kts 50°
2026-05-01 11:10 42.10839 4.44895 34526 ft 466 kts 41°
2026-05-01 11:10 42.13232 4.47818 34800 ft 464 kts 39°
2026-05-01 11:11 42.15645 4.50704 35072 ft 463 kts 39°
2026-05-01 11:11 42.18051 4.53592 35314 ft 463 kts 39°
2026-05-01 11:11 42.20446 4.56478 35578 ft 462 kts 39°
2026-05-01 11:11 42.22840 4.59369 35857 ft 461 kts 39°
2026-05-01 11:12 42.25224 4.62248 36134 ft 460 kts 39°
2026-05-01 11:12 42.27601 4.65120 36263 ft 458 kts 40°
2026-05-01 11:12 42.32312 4.70822 36284 ft 452 kts 39°
2026-05-01 11:13 42.34862 4.73247 36292 ft 447 kts 28°
2026-05-01 11:13 42.37542 4.75386 36298 ft 447 kts 27°
2026-05-01 11:13 42.42906 4.79647 36285 ft 447 kts 28°
2026-05-01 11:14 42.48276 4.83916 36287 ft 447 kts 29°
2026-05-01 11:14 42.53645 4.88199 36320 ft 448 kts 27°
2026-05-01 11:15 42.58978 4.92479 36311 ft 448 kts 28°
2026-05-01 11:15 42.64382 4.96830 36317 ft 448 kts 28°
2026-05-01 11:16 42.69706 5.01115 36324 ft 448 kts 27°
2026-05-01 11:16 42.75067 5.05423 36330 ft 447 kts 27°
2026-05-01 11:17 42.80421 5.09737 36327 ft 447 kts 28°
2026-05-01 11:17 42.85766 5.14064 36327 ft 447 kts 27°
2026-05-01 11:18 42.91113 5.18393 36329 ft 446 kts 28°
2026-05-01 11:18 42.96447 5.22724 36325 ft 446 kts 29°
2026-05-01 11:19 43.01781 5.27067 36328 ft 446 kts 28°
2026-05-01 11:19 43.07105 5.31410 36327 ft 446 kts 28°
2026-05-01 11:20 43.12427 5.35756 36323 ft 445 kts 28°
2026-05-01 11:20 43.17738 5.40108 36322 ft 445 kts 28°
2026-05-01 11:21 43.23043 5.44462 36316 ft 444 kts 28°
2026-05-01 11:21 43.28343 5.48817 36319 ft 444 kts 28°
2026-05-01 11:22 43.33636 5.53175 36319 ft 444 kts 28°
2026-05-01 11:22 43.38931 5.57551 36319 ft 444 kts 28°
2026-05-01 11:23 43.44210 5.61948 36319 ft 444 kts 28°
2026-05-01 11:23 43.48592 5.65611 36316 ft 444 kts 28°
2026-05-01 11:24 43.53866 5.70030 36315 ft 443 kts 28°
2026-05-01 11:25 43.61758 5.76649 36324 ft 442 kts 28°
2026-05-01 11:25 43.69630 5.83262 36329 ft 441 kts 28°
2026-05-01 11:26 43.77487 5.89881 36322 ft 440 kts 28°
2026-05-01 11:27 43.82711 5.94304 36325 ft 440 kts 28°
2026-05-01 11:27 43.87935 5.98726 36333 ft 440 kts 28°
2026-05-01 11:28 43.93151 6.03155 36323 ft 440 kts 28°
2026-05-01 11:28 43.98362 6.07592 36320 ft 439 kts 28°
2026-05-01 11:29 44.06167 6.14240 36332 ft 437 kts 28°
2026-05-01 11:30 44.13938 6.20879 36324 ft 437 kts 28°
2026-05-01 11:30 44.19076 6.25281 36327 ft 436 kts 28°
2026-05-01 11:31 44.24241 6.29732 36322 ft 436 kts 28°
2026-05-01 11:31 44.29407 6.34184 36322 ft 436 kts 29°
2026-05-01 11:32 44.34572 6.38643 36317 ft 436 kts 29°
2026-05-01 11:32 44.39733 6.43109 36311 ft 436 kts 29°
2026-05-01 11:33 44.44896 6.47581 36315 ft 436 kts 30°
2026-05-01 11:33 44.50051 6.52056 36315 ft 436 kts 30°
2026-05-01 11:34 44.55180 6.56588 36313 ft 436 kts 30°
2026-05-01 11:34 44.60271 6.61191 36309 ft 435 kts 31°
2026-05-01 11:35 44.65357 6.65800 36321 ft 435 kts 30°
2026-05-01 11:35 44.70445 6.70390 36331 ft 435 kts 30°
2026-05-01 11:36 44.75536 6.74979 36329 ft 434 kts 29°
2026-05-01 11:36 44.81071 6.78131 36317 ft 429 kts
2026-05-01 11:37 44.86894 6.78603 36317 ft 425 kts 355°
2026-05-01 11:37 44.92809 6.78195 36326 ft 426 kts 355°
2026-05-01 11:38 44.98741 6.77805 36329 ft 426 kts 355°
2026-05-01 11:38 45.04675 6.77414 36327 ft 428 kts 356°
2026-05-01 11:39 45.10624 6.77019 36329 ft 429 kts 356°
2026-05-01 11:39 45.16553 6.76630 36312 ft 429 kts 356°
2026-05-01 11:40 45.22560 6.76238 36304 ft 430 kts 356°
2026-05-01 11:40 45.28548 6.75834 36295 ft 431 kts 356°
2026-05-01 11:41 45.34552 6.75431 36300 ft 432 kts 356°
2026-05-01 11:41 45.40525 6.75040 36307 ft 433 kts 357°
2026-05-01 11:42 45.46499 6.76130 36309 ft 436 kts 16°
2026-05-01 11:42 45.51977 6.79854 36313 ft 438 kts 29°
2026-05-01 11:43 45.57252 6.84233 36312 ft 439 kts 29°
2026-05-01 11:43 45.62537 6.88625 36311 ft 440 kts 29°
2026-05-01 11:44 45.70471 6.95231 36331 ft 440 kts 29°
2026-05-01 11:44 45.75768 6.99649 36337 ft 441 kts 29°
2026-05-01 11:45 45.81055 7.04087 36332 ft 441 kts 30°
2026-05-01 11:45 45.86354 7.08543 36331 ft 441 kts 30°
2026-05-01 11:46 45.91651 7.13001 36351 ft 441 kts 30°
2026-05-01 11:46 45.96930 7.17448 36350 ft 439 kts 30°
2026-05-01 11:47 46.02182 7.21895 36318 ft 437 kts 30°
2026-05-01 11:47 46.07418 7.26340 36308 ft 436 kts 30°
2026-05-01 11:48 46.12642 7.30781 36299 ft 436 kts 30°
2026-05-01 11:48 46.17851 7.35229 36301 ft 435 kts 30°
2026-05-01 11:49 46.23019 7.39643 36299 ft 434 kts 30°
2026-05-01 11:49 46.28215 7.44082 36301 ft 434 kts 30°
2026-05-01 11:50 46.33399 7.48535 36301 ft 433 kts 30°
2026-05-01 11:50 46.38581 7.53000 36311 ft 433 kts 30°
2026-05-01 11:51 46.43759 7.57456 36316 ft 433 kts 30°
2026-05-01 11:51 46.48941 7.61919 36309 ft 433 kts 30°
2026-05-01 11:52 46.54111 7.66398 36305 ft 433 kts 30°
2026-05-01 11:52 46.59284 7.70885 36306 ft 433 kts 30°
2026-05-01 11:53 46.64551 7.75121 36308 ft 433 kts 27°
2026-05-01 11:53 46.69904 7.79109 36309 ft 432 kts 26°
2026-05-01 11:54 46.75255 7.83116 36309 ft 432 kts 27°
2026-05-01 11:54 46.80578 7.87206 36312 ft 432 kts 27°
2026-05-01 11:55 46.85891 7.91332 36320 ft 432 kts 27°
2026-05-01 11:55 46.91209 7.95456 36311 ft 432 kts 27°
2026-05-01 11:56 46.96524 7.99571 36311 ft 432 kts 27°
2026-05-01 11:56 47.01841 8.03709 36312 ft 433 kts 27°
2026-05-01 11:57 47.07150 8.07856 36315 ft 433 kts 27°
2026-05-01 11:57 47.12469 8.12003 36315 ft 433 kts 27°
2026-05-01 11:58 47.17781 8.16151 36316 ft 432 kts 27°
2026-05-01 11:59 47.25741 8.22404 36326 ft 432 kts 28°
2026-05-01 11:59 47.31048 8.26581 36327 ft 433 kts 28°
2026-05-01 12:00 47.39012 8.32855 36342 ft 432 kts 28°
2026-05-01 12:01 47.46940 8.39148 36355 ft 430 kts 28°
2026-05-01 12:01 47.52211 8.43333 36355 ft 429 kts 28°
2026-05-01 12:02 47.57433 8.47481 36354 ft 429 kts 28°
2026-05-01 12:02 47.62680 8.51670 36352 ft 428 kts 28°
2026-05-01 12:03 47.67922 8.55865 36349 ft 428 kts 28°
2026-05-01 12:03 47.73161 8.60054 36346 ft 428 kts 28°
2026-05-01 12:04 47.78391 8.64267 36342 ft 427 kts 28°
2026-05-01 12:04 47.83613 8.68487 36337 ft 427 kts 28°
2026-05-01 12:05 47.88837 8.72701 36339 ft 427 kts 28°
2026-05-01 12:05 47.96668 8.79031 36339 ft 427 kts 28°
2026-05-01 12:06 48.01892 8.83273 36330 ft 427 kts 28°
2026-05-01 12:06 48.07104 8.87519 36326 ft 427 kts 28°
2026-05-01 12:07 48.09703 8.89636 36199 ft 423 kts 28°
2026-05-01 12:07 48.12291 8.91749 35739 ft 426 kts 28°
2026-05-01 12:07 48.14942 8.93909 35332 ft 442 kts 27°
2026-05-01 12:07 48.17846 8.95510 34958 ft 450 kts 11°
2026-05-01 12:08 48.20956 8.96218 34598 ft 455 kts
2026-05-01 12:08 48.24107 8.96748 33766 ft 455 kts
2026-05-01 12:08 48.27250 8.97155 33219 ft 455 kts
2026-05-01 12:08 48.30430 8.97526 32718 ft 460 kts
2026-05-01 12:09 48.33624 8.97915 32189 ft 461 kts
2026-05-01 12:09 48.36823 8.98348 31679 ft 461 kts
2026-05-01 12:09 48.40016 8.98819 31166 ft 462 kts
2026-05-01 12:09 48.43224 8.99316 30657 ft 464 kts
2026-05-01 12:10 48.46435 8.99824 30111 ft 465 kts
2026-05-01 12:10 48.51804 9.00664 29266 ft 468 kts
2026-05-01 12:10 48.55041 9.01166 28774 ft 468 kts
2026-05-01 12:11 48.61498 9.02163 27794 ft 463 kts
2026-05-01 12:11 48.65720 9.02900 27155 ft 460 kts
2026-05-01 12:11 48.68869 9.03605 26680 ft 456 kts
2026-05-01 12:12 48.70987 9.04129 26360 ft 454 kts 10°
2026-05-01 12:12 48.74091 9.04934 25866 ft 452 kts 10°
2026-05-01 12:12 48.77174 9.05738 25374 ft 447 kts 11°
2026-05-01 12:12 48.80230 9.06517 24872 ft 445 kts 10°
2026-05-01 12:13 48.83282 9.07270 24368 ft 442 kts
2026-05-01 12:13 48.86303 9.07997 23855 ft 439 kts 10°
2026-05-01 12:13 48.89316 9.08682 23284 ft 437 kts
2026-05-01 12:13 48.92334 9.09219 22763 ft 435 kts
2026-05-01 12:14 48.95339 9.09636 22242 ft 433 kts
2026-05-01 12:14 48.98345 9.09996 21723 ft 432 kts
2026-05-01 12:14 49.01337 9.10348 21207 ft 431 kts
2026-05-01 12:14 49.04314 9.10718 20667 ft 429 kts
2026-05-01 12:15 49.07281 9.11115 20133 ft 427 kts
2026-05-01 12:15 49.10234 9.11535 19612 ft 425 kts
2026-05-01 12:15 49.13172 9.11961 19073 ft 423 kts
2026-05-01 12:15 49.16097 9.12386 18549 ft 422 kts
2026-05-01 12:16 49.18970 9.12801 17992 ft 418 kts
2026-05-01 12:16 49.21854 9.13218 17480 ft 415 kts
2026-05-01 12:16 49.24754 9.13638 16956 ft 412 kts
2026-05-01 12:16 49.27558 9.14045 16459 ft 408 kts
2026-05-01 12:17 49.30364 9.14852 15912 ft 403 kts 16°
2026-05-01 12:17 49.33086 9.15812 15360 ft 400 kts 15°
2026-05-01 12:17 49.35788 9.16769 14810 ft 397 kts 15°
2026-05-01 12:17 49.38468 9.17724 14270 ft 394 kts 16°
2026-05-01 12:18 49.41122 9.18670 13692 ft 390 kts 15°
2026-05-01 12:18 49.43761 9.19610 13168 ft 388 kts 15°
2026-05-01 12:18 49.46351 9.20531 12642 ft 386 kts 15°
2026-05-01 12:18 49.48962 9.21460 12114 ft 384 kts 15°
2026-05-01 12:19 49.51557 9.22383 11592 ft 382 kts 15°
2026-05-01 12:19 49.54141 9.23301 11158 ft 380 kts 16°
2026-05-01 12:19 49.56718 9.24219 11079 ft 381 kts 15°
2026-05-01 12:19 49.59300 9.25144 10952 ft 382 kts 16°
2026-05-01 12:20 49.61882 9.26068 10821 ft 380 kts 15°
2026-05-01 12:20 49.64456 9.26988 10669 ft 379 kts 14°
2026-05-01 12:20 49.67024 9.27907 10517 ft 379 kts 15°
2026-05-01 12:20 49.69594 9.28831 10369 ft 379 kts 15°
2026-05-01 12:21 49.72160 9.29756 10259 ft 378 kts 15°
2026-05-01 12:21 49.74727 9.30683 10176 ft 379 kts 15°
2026-05-01 12:21 49.77284 9.31604 10019 ft 377 kts 15°
2026-05-01 12:21 49.79837 9.32523 9895 ft 377 kts 15°
2026-05-01 12:22 49.82405 9.33353 9770 ft 377 kts
2026-05-01 12:22 49.85002 9.32935 9644 ft 381 kts 342°
2026-05-01 12:22 49.87272 9.30850 9543 ft 383 kts 316°
2026-05-01 12:22 49.88795 9.27485 9444 ft 383 kts 293°
2026-05-01 12:23 49.89588 9.23569 9329 ft 379 kts 280°
2026-05-01 12:23 49.90013 9.19544 9216 ft 379 kts 276°
2026-05-01 12:23 49.90368 9.15507 9100 ft 377 kts 277°
2026-05-01 12:23 49.90804 9.11505 8982 ft 377 kts 279°
2026-05-01 12:24 49.91365 9.07556 8848 ft 376 kts 282°
2026-05-01 12:24 49.92042 9.03622 8747 ft 375 kts 284°
2026-05-01 12:24 49.92788 8.99750 8638 ft 375 kts 285°
2026-05-01 12:24 49.93568 8.95884 8533 ft 374 kts 286°
2026-05-01 12:25 49.94347 8.92029 8421 ft 374 kts 286°
2026-05-01 12:25 49.95863 8.84329 8185 ft 372 kts 285°
2026-05-01 12:25 49.96599 8.80474 8057 ft 372 kts 285°
2026-05-01 12:26 49.97322 8.76636 7945 ft 370 kts 284°
2026-05-01 12:26 49.97527 8.68850 7691 ft 362 kts 251°
2026-05-01 12:26 49.96681 8.65185 7566 ft 360 kts 247°
2026-05-01 12:27 49.95801 8.61549 7442 ft 359 kts 247°
2026-05-01 12:27 49.94047 8.54305 7202 ft 358 kts 247°
2026-05-01 12:28 49.92305 8.47090 6983 ft 356 kts 247°
2026-05-01 12:28 49.91445 8.43497 6861 ft 356 kts 247°
2026-05-01 12:28 49.89724 8.36322 6658 ft 355 kts 247°
2026-05-01 12:29 49.88857 8.32739 6560 ft 354 kts 247°
2026-05-01 12:29 49.87995 8.29194 6453 ft 353 kts 246°
2026-05-01 12:29 49.86354 8.22453 6266 ft 315 kts 246°
2026-05-01 12:30 49.84990 8.16407 6024 ft 289 kts 258°
2026-05-01 12:30 49.85142 8.13332 5927 ft 281 kts 286°
2026-05-01 12:30 49.86101 8.10817 5821 ft 272 kts 314°
2026-05-01 12:31 49.87626 8.09218 5720 ft 261 kts 341°
2026-05-01 12:31 49.89338 8.08430 5620 ft 257 kts 346°
2026-05-01 12:31 49.91063 8.07720 5516 ft 255 kts 352°
2026-05-01 12:31 49.92771 8.08005 5410 ft 248 kts 30°
2026-05-01 12:32 49.94004 8.09720 5308 ft 235 kts 66°
2026-05-01 12:32 49.95170 8.14410 5110 ft 232 kts 75°
2026-05-01 12:32 49.95725 8.16687 4985 ft 219 kts 74°
2026-05-01 12:33 49.96255 8.18862 4707 ft 212 kts 74°
2026-05-01 12:33 49.96776 8.21005 4395 ft 206 kts 74°
2026-05-01 12:33 49.97270 8.23043 4119 ft 204 kts 73°
2026-05-01 12:33 49.97760 8.25062 3845 ft 194 kts 73°
2026-05-01 12:34 49.98227 8.26981 3561 ft 186 kts 73°
2026-05-01 12:34 49.98667 8.28801 3304 ft 176 kts 72°
2026-05-01 12:34 49.99095 8.30572 3051 ft 173 kts 71°
2026-05-01 12:34 49.99522 8.32341 2820 ft 174 kts 71°
2026-05-01 12:35 49.99943 8.34080 2564 ft 172 kts 73°
2026-05-01 12:35 50.00350 8.35758 2336 ft 158 kts 73°
2026-05-01 12:35 50.00724 8.37310 2103 ft 147 kts 73°
2026-05-01 12:35 50.01074 8.38758 1895 ft 142 kts 72°
2026-05-01 12:36 50.01415 8.40178 1707 ft 140 kts 72°
2026-05-01 12:36 50.01754 8.41586 1507 ft 137 kts 74°
2026-05-01 12:36 50.02090 8.42977 1290 ft 136 kts 73°
2026-05-01 12:36 50.02424 8.44375 1120 ft 138 kts 73°
2026-05-01 12:37 50.02763 8.45791 904 ft 139 kts 71°
2026-05-01 12:37 50.03096 8.47174 719 ft 136 kts 73°
2026-05-01 12:37 50.03432 8.48569 527 ft 136 kts 71°
2026-05-01 12:37 50.03761 8.49943 331 ft 135 kts 72°
2026-05-01 12:38 50.04046 8.51133 327 ft 95 kts 69°
2026-05-01 12:38 50.04212 8.51827 334 ft 47 kts 72°
2026-05-01 12:38 50.04229 8.52224 341 ft 25 kts 99°
2026-05-01 12:38 50.04202 8.52478 347 ft 22 kts 99°
2026-05-01 12:39 50.04211 8.52718 350 ft 24 kts 70°
2026-05-01 12:39 50.04272 8.52981 362 ft 28 kts 70°
2026-05-01 12:39 50.04343 8.53272 366 ft 29 kts 70°
2026-05-01 12:39 50.04399 8.53567 376 ft 29 kts 83°
2026-05-01 12:40 50.04420 8.53881 376 ft 28 kts 84°
2026-05-01 12:40 50.04439 8.54178 375 ft 28 kts 84°
2026-05-01 12:40 50.04452 8.54461 370 ft 25 kts 95°
2026-05-01 12:40 50.04367 8.54719 361 ft 29 kts 138°
2026-05-01 12:41 50.04187 8.54843 357 ft 24 kts 160°
2026-05-01 12:41 50.04054 8.54918 354 ft 15 kts 159°
2026-05-01 12:41 50.04021 8.55027 355 ft 12 kts 73°
2026-05-01 12:41 50.04054 8.55165 360 ft 14 kts 70°
2026-05-01 12:42 50.04092 8.55323 354 ft 17 kts 69°
2026-05-01 12:42 50.04137 8.55510 352 ft 19 kts 70°
2026-05-01 12:42 50.04185 8.55713 359 ft 20 kts 70°
2026-05-01 12:42 50.04236 8.55924 356 ft 21 kts 70°
2026-05-01 12:43 50.04289 8.56075 359 ft 13 kts 21°
2026-05-01 12:43 50.04376 8.56037 356 ft 14 kts 339°
2026-05-01 12:43 50.04448 8.56101 361 ft 14 kts 66°
2026-05-01 12:43 50.04478 8.56229 359 ft 8 kts 77°
2026-05-01 12:44 50.04460 8.56253 360 ft 3 kts 161°
2026-05-01 12:44 50.04432 8.56268 360 ft 2 kts 162°
2026-05-01 12:44 50.04418 8.56275 358 ft 0 kts 162°